Regional Weather Roundup
Issued by NWS Binghamton, NY

Home | Current Version | Previous Version | Text Only | Print | Product List | Glossary On
Versions: 1 2 3 4 5 6 7 8 9 10 11 12 13 14 15 16 17 18 19 20 21 22 23 24 25 26 27 28 29 30 31 32 33 34 35 36 37 38 39 40 41 42 43 44 45 46 47 48 49 50
000
ASUS41 KBGM 260110
RWRBGM

REGIONAL WEATHER ROUNDUP
NATIONAL WEATHER SERVICE BINGHAMTON NY
900 PM EDT SUN JUN 25 2017

Note: "fair" indicates few or no clouds below 12,000 feet with no
significant weather and/or obstructions to visibility.

* = Station(s) that does not report precipitation, such as rain,
snow, etc, also no thunder or fog.

NYZ009-015>018-022>025-036-037-044>046-055>057-062-260200
...Central New York...

CITY           SKY/WX    TMP DP  RH WIND       PRES   REMARKS
Binghamton     CLOUDY    55  52  88 SW8       30.03R
Cortland       FAIR      54  54 100 CALM      30.00S
Dansville      CLEAR     63  51  65 CALM      30.00S
Elmira         NOT AVBL
Seneca Falls   MOCLDY    63  55  77 CALM      29.99S
Ithaca         PTCLDY    57  54  88 S6        30.01S
Hamilton       MOCLDY    57  52  82 SE5       30.00R
Hornell        CLEAR     57  52  82 CALM      30.05R
Monticello     MOCLDY    66  48  52 W6        29.99R
Norwich        MOCLDY    55  54  94 CALM      30.01F
Oneonta        LGT RAIN  54 N/A N/A CALM      30.01F
Penn Yan       CLEAR     62  49  62 SW9       29.99R
Rome           CLOUDY    59  54  83 SW6       29.97F
Sidney         CLOUDY    55  55 100 CALM      30.02S
Syracuse       PTCLDY    60  52  74 S5        29.97R
$$

PAZ038>040-043-044-047-048-072-260200
...Northeast Pennsylvania...

CITY           SKY/WX    TMP DP  RH WIND       PRES   REMARKS
Hazleton         N/A     64  46  52 CALM      30.05R
Scranton       PTCLDY    72  48  42 SW7       29.98R
$$
&&
KEY
WCI = Wind Chill Index
VSB = Visibility
HX  = Heat Index
$$



USA.gov is the U.S. government's official web portal to all federal, state and local government web resources and services.